GCRR

Lanzarote

Airport
ICAO code
GCRR
Summary
ICAO Region
EUR
ICAO Territory
Location

Arrecife,

Coordinates
28° 56' 44" N , 13° 36' 19" W
KCC
Metar
Observation
GCRR 271530Z 06017KT CAVOK 25/17 Q1021
Station
Lanzarote / Aeropuerto
Date/Time
2022-11-27 15:30:00
Wind direction
60°
Wind speed
17 kts
Lowest cloud amount
clouds and visibility OK
Temperature
25°C
Dew point
17°C
Humidity
61%
QNH
1021 hPa
Weather condition
n/a

Description

Airport serving the island of Lanzarote.

Climatology

Dry-summer subtropical ”Mediterranean" climate (Köppen climate classification Csa) - characterized by hot, dry summers and mild winters. During the summer, subtropical high pressure cells dominate, making rainfall unlikely except for the occasional thunderstorm. In the winter, periodic storms bring rain (snow at higher elevations).

Runways

Designator Length Width Surface Rops
3/21 2400 45 ASP Yes/Yes

Airport map

Aerial View

SKYbrary Partners:

Safety knowledge contributed by: